This is the latest recevied weather packets stored in our database for station/object KE5OYL. If no packets are shown the sender has not sent any weather packets the latest 10 day(s).
| Time | Temp. | Humidity | Pressure | Rain* | Wind** | Luminosity | Snow |
|---|---|---|---|---|---|---|---|
| 1788550049 | 35.56° C | 44% | 1013.7 hPa | 0 mm | - | 790 W/m² | - |
| 1788549744 | 35.56° C | 44% | 1013.8 hPa | 0 mm | - | 768 W/m² | - |
| 1788549441 | 35.56° C | 44% | 1013.9 hPa | 0 mm | - | 764 W/m² | - |
| 1788549136 | 36.11° C | 43% | 1013.8 hPa | 0 mm | - | 768 W/m² | - |
| 1788548833 | 36.11° C | 44% | 1013.9 hPa | 0 mm | - | 769 W/m² | - |
| 1788548529 | 35.56° C | 44% | 1013.8 hPa | 0 mm | - | 764 W/m² | - |
| 1788548225 | 35.56° C | 44% | 1013.9 hPa | 0 mm | - | 765 W/m² | - |
| 1788547919 | 35.56° C | 45% | 1014 hPa | 0 mm | - | 776 W/m² | - |
| 1788547618 | 35.56° C | 46% | 1014.2 hPa | 0 mm | - | 789 W/m² | - |
| 1788547314 | 35° C | 46% | 1014.1 hPa | 0 mm | - | 759 W/m² | - |
| 1788547009 | 35° C | 47% | 1014.4 hPa | 0 mm | - | 768 W/m² | - |
| 1788546703 | 35° C | 46% | 1014.5 hPa | 0 mm | - | 773 W/m² | - |
| 1788546399 | 35° C | 47% | 1014.4 hPa | 0 mm | - | 774 W/m² | - |
| 1788546094 | 35° C | 45% | 1014.5 hPa | 0 mm | - | 776 W/m² | - |
| 1788545790 | 35° C | 46% | 1014.6 hPa | 0 mm | - | 770 W/m² | - |
| 1788545484 | 35° C | 45% | 1014.5 hPa | 0 mm | - | 781 W/m² | - |
| 1788545180 | 35° C | 44% | 1014.7 hPa | 0 mm | - | 790 W/m² | - |
| 1788544875 | 35° C | 46% | 1014.7 hPa | 0 mm | - | 807 W/m² | - |
| 1788544574 | 34.44° C | 48% | 1014.9 hPa | 0 mm | - | 829 W/m² | - |
| 1788544272 | 34.44° C | 49% | 1014.8 hPa | 0 mm | - | 525 W/m² | - |
| 1788543967 | 33.33° C | 51% | 1015 hPa | 0 mm | - | 787 W/m² | - |
| 1788543664 | 33.89° C | 52% | 1015.1 hPa | 0 mm | - | 749 W/m² | - |
| 1788543364 | 34.44° C | 51% | 1015.2 hPa | 0 mm | - | 751 W/m² | - |
| 1788543059 | 33.89° C | 53% | 1015 hPa | 0 mm | - | 737 W/m² | - |
| 1788542755 | 33.89° C | 54% | 1015.4 hPa | 0 mm | - | 726 W/m² | - |
* Rain latest hour (hover to see other rain measurements)
** Current wind speed in m/s (hover to see current wind gust speed)